This demonstration page uses our WeatherBlox Daily Observations layout. Learn more.

Left ArrowRight Arrow

39.01783, -85.05884

Hourly Observations for May 1, 2015

Temp ( °F °C ) Dew Point ( °F °C ) Humidity (%) Winds ( mph kmh ) Pressure ( in mb ) Visibility ( mi km ) Precip ( " mm )
12:52 am 00:52 Partly Cloudy 48 8.9 39 3.9 71 71 NNW 9 15 29.99 1016 10 16 0.00 0.00
1:52 am 01:52 Cloudy 49 9.4 40 4.4 71 71 NNW 10 17 30.00 1016 10 16 0.00 0.00
2:52 am 02:52 Cloudy 49 9.4 41 5 74 74 NNW 7 11 29.98 1015 10 16 0.00 0.00
3:52 am 03:52 Cloudy 49 9.4 41 5 74 74 NNW 6 9 29.99 1016 10 16 0.00 0.00
4:52 am 04:52 Cloudy 49 9.4 40 4.4 71 71 NNW 12 19 30.00 1016 10 16 0.00 0.00
5:52 am 05:52 Clear 47 8.3 39 3.9 74 74 N 9 15 30.00 1016 10 16 0.00 0.00
7:52 am 07:52 Partly Cloudy 49 9.4 40 4.4 71 71 NNW 6 9 30.04 1017 10 16 0.00 0.00
8:52 am 08:52 Sunny 51 10.6 40 4.4 66 66 NNW 9 15 30.06 1018 10 16 0.00 0.00
9:52 am 09:52 Sunny 54 12.2 42 5.6 64 64 N 10 17 30.07 1018 10 16 0.00 0.00
10:52 am 10:52 Sunny 59 15 45 7.2 60 60 N 9 15 30.07 1018 10 16 0.00 0.00
11:52 am 11:52 Sunny 62 16.7 45 7.2 54 54 NNW 10 17 30.07 1018 10 16 0.00 0.00
12:52 pm 12:52 Sunny 65 18.3 46 7.8 51 51 NW 9 15 30.07 1018 10 16 0.00 0.00
1:52 pm 13:52 Partly Cloudy 68 20 43 6.1 40 40 NNE 7 11 30.06 1018 10 16 0.00 0.00
2:52 pm 14:52 Mostly Sunny 68 20 42 5.6 39 39 N 12 19 30.05 1018 10 16 0.00 0.00
3:52 pm 15:52 Partly Cloudy 70 21.1 43 6.1 38 38 N 14 22 30.04 1017 10 16 0.00 0.00
4:52 pm 16:52 Partly Cloudy 72 22.2 44 6.7 37 37 NNW 9 15 30.02 1017 10 16 0.00 0.00
5:52 pm 17:52 Partly Cloudy 72 22.2 43 6.1 35 35 N 12 19 30.02 1017 10 16 0.00 0.00
6:52 pm 18:52 Partly Cloudy 71 21.7 41 5 34 34 N 12 19 30.02 1017 10 16 0.00 0.00
7:52 pm 19:52 Partly Cloudy 54 12 43 6 67 67 NW 6 9 29.91 1013 10 16 0.00 0.00
8:52 pm 20:52 Partly Cloudy 64 17.8 41 5 43 43 NNW 7 11 30.04 1017 10 16 0.00 0.00
9:52 pm 21:52 Mostly Clear 62 16.7 40 4.4 44 44 N 3 6 30.05 1018 10 16 0.00 0.00
10:52 pm 22:52 Clear 56 13.3 41 5 57 57 WNW 3 6 30.07 1018 10 16 0.00 0.00
11:52 pm 23:52 Partly Cloudy 53 11.7 41 5 64 64 Calm 30.07 1018 10 16 0.00 0.00

Powered by AerisWeather